Lid_Strength_Index
-0 -0 -1 -1 -1 -1 -1 -1 -1 -0 0 1 1 1 1 1 1 4 8 7 5 0 2 6 8 8 7 7 5 6 10 12 11 11 10 9 9 9 9 10 10 10 10 10 7
-0 -0 -1 -1 -0 -0 -1 -1 -1 -1 0 1 1 1 1 1 5 7 4 2 1 1 9 8 9 8 9 8 7 8 11 11 9 9 9 9 9 10 10 10 10 10 10 9 8
-0 -0 -1 -1 -0 0 -0 -0 -1 -1 -0 0 2 1 2 2 8 10 1 1 1 3 7 7 8 8 9 8 8 9 11 9 9 8 8 9 10 10 10 11 10 10 11 9 8
-1 -1 -1 -0 0 0 0 0 -0 -1 -1 0 2 1 1 5 15 7 1 0 0 7 8 8 9 9 10 10 8 10 10 9 8 8 9 10 9 10 10 9 10 10 10 9 9
-1 -1 -1 -0 0 0 0 0 -0 -1 -1 0 1 2 5 10 9 5 1 2 7 8 9 9 10 10 11 10 9 10 11 9 9 9 9 9 10 9 10 10 11 10 10 10 9
-1 -1 -1 -1 0 0 0 0 0 -1 -1 -0 1 3 9 14 8 6 5 7 8 9 10 9 9 9 10 10 9 10 10 10 9 9 9 9 10 10 10 11 11 11 11 10 10
-1 -1 -1 -1 -0 0 0 0 0 -1 -1 -0 1 4 10 11 8 7 6 8 8 9 11 9 8 9 9 10 9 10 11 11 11 10 10 9 11 11 10 11 11 11 11 11 10
-1 -1 -1 -1 -1 -0 -0 0 0 -1 -1 0 -0 7 12 9 8 7 7 8 8 8 9 9 7 8 8 9 10 12 12 13 12 10 11 9 12 10 11 11 11 12 12 11 11
-1 -1 -1 -1 -1 -1 -0 0 -0 -1 -1 -0 4 9 12 7 10 8 7 9 9 9 9 8 7 9 9 11 13 13 15 14 13 11 12 11 11 11 12 12 11 12 12 12 11
-1 -1 -1 -1 -2 -1 -0 -0 -0 -1 -0 0 2 9 10 14 11 9 8 9 10 10 10 11 11 11 12 13 15 15 15 15 14 13 13 14 12 11 12 12 12 12 12 12 12
-2 -1 -2 -1 -1 -1 1 2 4 5 3 7 9 11 10 9 10 10 9 9 11 12 15 13 14 15 12 11 12 12 14 15 14 14 13 13 14 13 12 13 13 13 12 11 11
-2 -2 -1 -2 -1 -1 2 5 5 5 9 4 5 7 7 8 13 11 9 12 13 16 15 15 16 14 11 11 12 13 14 15 15 15 14 15 15 13 13 12 11 11 11 10 10
-1 -2 -1 -2 -2 1 4 4 2 4 8 7 5 6 8 9 12 13 10 12 15 16 16 17 15 12 13 13 12 14 14 15 15 16 16 17 16 15 14 14 13 12 10 10 10
-1 -2 -1 -1 2 4 5 3 1 3 12 11 9 7 9 8 12 11 10 12 15 16 15 16 15 13 14 14 12 14 13 14 15 16 18 17 19 17 15 15 15 14 14 12 11
-1 -1 -2 -1 4 5 4 2 1 3 23 12 9 5 8 12 12 12 11 13 16 16 16 18 16 15 15 14 13 13 13 14 15 16 17 18 19 16 17 16 15 15 15 15 14
-1 -1 -1 0 2 2 1 1 3 13 20 12 9 11 11 12 12 11 12 12 13 15 16 16 15 15 14 15 13 14 14 15 16 17 20 18 18 17 17 17 16 15 15 14 14
-1 -1 -0 1 4 1 1 4 13 17 13 13 12 11 11 12 13 13 13 16 17 19 19 16 16 16 15 15 15 16 17 20 20 21 21 19 19 16 15 15 15 14 14 14 14
-1 -1 -0 0 1 0 2 9 17 17 15 12 13 11 12 11 12 14 15 16 16 18 20 20 21 16 15 15 16 17 16 20 24 23 20 19 20 17 15 14 14 14 14 14 14
-1 1 1 1 0 1 7 14 15 16 12 13 12 13 13 12 13 14 15 15 16 16 19 20 20 16 15 15 14 16 18 17 21 26 22 20 18 15 15 14 14 14 14 14 13
2 3 3 0 0 3 9 13 12 12 11 11 14 12 14 14 14 15 16 15 15 15 16 17 19 16 15 15 15 16 15 18 20 24 24 22 21 19 17 16 15 15 15 14 14
3 6 3 -0 1 7 13 12 10 8 10 12 14 15 14 14 14 15 15 15 13 15 15 17 17 18 16 17 17 16 17 18 18 19 22 23 20 17 16 15 15 15 15 14 14
4 10 2 1 9 9 12 12 8 9 8 10 12 13 14 14 14 13 15 14 11 13 16 15 17 20 19 17 16 17 16 16 19 21 21 20 19 16 15 15 15 15 15 15 15
7 8 2 3 12 12 11 10 9 10 9 11 12 12 13 14 15 14 14 11 11 13 14 14 17 23 20 18 18 17 17 17 17 17 20 20 19 15 15 15 15 15 15 15 15
8 10 7 6 7 10 12 12 11 8 9 9 10 11 13 13 13 14 14 13 11 10 10 11 15 17 20 19 18 18 17 17 17 19 19 19 18 16 15 14 14 15 15 15 15
8 9 9 11 10 10 10 11 12 12 9 8 11 11 12 17 14 14 14 13 13 10 11 12 18 17 17 17 17 17 17 18 18 18 18 18 18 16 14 14 14 15 15 14 14
8 9 8 8 8 10 10 11 12 11 10 11 13 11 12 14 13 14 13 13 14 13 12 12 17 16 19 16 15 16 17 17 17 17 18 19 18 16 15 14 16 14 13 14 13
7 6 9 9 10 11 11 11 11 10 10 9 9 11 12 12 11 11 11 11 11 12 13 13 14 16 18 16 15 20 17 18 17 18 17 18 15 15 15 14 14 14 13 13 13